Terug naar catalogus

SNUSat 2

SNUSAT-2

ActiefAmateurradioSSO
NORAD 43782·PAYLOAD·🇰🇷 South Korea

Gelanceerd Dec 3, 2018 vanaf Vandenberg Space Force Base

Loading…

Volgende Passages (komende 24 uur)

TLE

VersSource: AMSAT

Epoch: Sep 14, 2026, 09:23 UTC

1 43782U 18099AA  26257.39122103  .00005573  00000-0  23954-3 0  9990
2 43782  97.3966 309.4360 0009437 352.4394   7.6699 15.23025775426606

Volg SNUSat 2 in realtime met AllMySat

Download on the App Store